Location: Ku?niki
(51.4449°N, 17.8974°E)
Time: 19:08:33
(UTC+00:00)

ERS-1 Rocket - Pass Details

Date: 18 September 2020
Orbit: 754 x 757 km, 98.5° (Epoch: 22 October)

Event Time Altitude Azimuth Distance (km) Brightness Sun altitude
Exits shadow 20:57:23 38° 296° (WNW) 1,148 4.2 -32.6°
Drops below altitude 10° 21:01:05 10° 334° (NNW) 2,296 6.3 -32.9°
Sets 21:03:30 0° 341° (NNW) 3,226 7.3 -33.1°
